星链-33661 (STARLINK-33661)

导读

STARLINK-33661是美国太空探索技术公司SpaceX于2025年4月25日发射的星链(Starlink)低轨互联网卫星,属于第二代星链卫星星座组网的一员,运行在近地轨道。星链星座旨在为全球尤其是网络基础设施薄弱区域提供高速低延迟宽带服务,卫星配备相关通信载荷,配合大规模星座实现全球覆盖。

基本信息
目录编号:
63646
目录名称:
STARLINK-33661
国际标识:
2025-083N
轨道中心:
EARTH
卫星名称:
星链-33661
卫星全名:
星链-33661 (STARLINK-33661)
卫星状态:
在轨 (已飞行504 天)
发射日期:
2025-04-25 UTC
国别 :
美国 (US)
星等 :
--
该卫星已列入 空间交会检测服务 Space Conjunction Data Service (SCDS) ,当前飞行风险评估等级: 高风险
轨道信息
数据来源 国际轨道数据
星历时间: 2026-09-11T18:09:13+0800
10小时前
查看轨道信息
半长轴: 6861.152km
偏心率: 0.0000811
轨道倾角: 42.999°
近地点辐角 258.617°
升交点赤经 36.167°
平近点角 101.459°
近地点: 482.458km
远地点: 483.572km
周期: 94.266分钟
每日圈数: 15.275915
详细信息
固有亮度:
5
最大亮度:
2.5
卫星平台:
Starlink V1.0
覆盖范围:
全球
运营商:
太空探索技术公司
运营商所在国:
美国
制造商(研发单位):
太空探索技术公司
制造商所在国:
美国
使用方式:
暂无
卫星简介
Starlink 计划是 SpaceX 推出的全球卫星互联网项目,通过发射低轨道卫星,为全球尤其是偏远地区提供高速、低延迟的互联网服务。自 2019 年起,Starlink 已部署数千颗卫星,旨在缩小全球数字鸿沟,推动互联网普及。该项目还为军事、航空等行业提供通信支持,带来广泛经济效益。
2D轨道图
3D轨道图
轨道高度分析图
轨道倾角分析图
轨道综合分析图
查看轨道综合分析图
交会数据列表
事件ID 空间交会对象 最接近时刻(TCA) 交会距离 交会风险概率(CRP) 交会风险指数(CRI) 操作
CDM_260913-190906-364606-414321
2026-09-13T
19:09:25+0000
0.305 km
远距离
3.370079E-4 高风险 0.86
CDM_260913-035906-249506-364621
2026-09-13T
03:59:52+0000
0.345 km
远距离
2.76214E-4 高风险 0.84
CDM_260913-080805-915306-364621
2026-09-13T
08:08:28+0000
0.593 km
远距离
6.621638E-5 中风险 0.71
CDM_260912-104606-364606-425221
2026-09-12T
10:46:14+0000
0.707 km
远距离
4.037699E-5 中风险 0.67
CDM_260912-192406-364606-425221
2026-09-12T
19:24:04+0000
0.740 km
远距离
3.500273E-5 中风险 0.66
CDM_260912-104106-364606-783721
2026-09-12T
10:41:33+0000
0.891 km
远距离
2.570579E-5 中风险 0.63
CDM_260913-031006-364606-783721
2026-09-13T
03:10:08+0000
0.958 km
远距离
2.010268E-5 中风险 0.61
CDM_260912-091206-364606-425221
2026-09-12T
09:12:05+0000
0.884 km
远距离
1.941401E-5 中风险 0.61
CDM_260913-044406-364606-783721
2026-09-13T
04:44:17+0000
0.988 km
远距离
1.810112E-5 中风险 0.6
CDM_260913-141106-249506-364621
2026-09-13T
14:11:50+0000
1.044 km
极远距离
1.296862E-5 中风险 0.57
与全量物体交会距离演化趋势
与全量物体交会风险概率演化趋势